Jacksonville Craig, FL

5:53 PM EST on February 23, 2018 (GMT -0500)
Craig Municipal

Weather History for KCRG - April, 2013

Change the Weather History Date:

Friday, April 12, 2013

  Actual Average Record
Temperature  
Mean Temperature 81 °F -  
Max Temperature 90 °F 75 °F 90 °F (2013)
Min Temperature 73 °F 55 °F 45 °F (1998)
Cooling Degree Days 16    
Growing Degree Days 31 (Base 50)    
Moisture  
Dew Point 68 °F    
Average Humidity 73    
Maximum Humidity 88    
Minimum Humidity 42    
Precipitation  
Precipitation 0.00 in - - ()
Sea Level Pressure  
Sea Level Pressure 29.83 in    
Wind  
Wind Speed 10 mph (SSW)    
Max Wind Speed 23 mph    
Max Gust Speed 33 mph    
Visibility 10 miles    
Events      
Averages and records for this station are not official NWS values.
T = Trace of Precipitation, MM = Missing Value Source: NWS Daily Summary

Daily Weather History Graph

Daily Weather History Graph

Search for Another Location

Airport or City:

Trip Planner

Search our weather history database for the weather conditions in past years. The results will help you decide how hot, cold, wet, or windy it might be!

Date:

Astronomy

Apr. 12, 2013 Rise Set
Actual Time 7:01 AM EDT 7:51 PM EDT
Civil Twilight 6:37 AM EDT 8:16 PM EDT
Nautical Twilight 6:08 AM EDT 8:45 PM EDT
Astronomical Twilight 5:39 AM EDT 9:15 PM EDT
Moon 8:19 AM EDT (4/12) 10:10 PM EDT (4/12)
Length of Visible Light 13h 38m
Length of Day
12h 49m
Waxing Crescent, 5% of the Moon is Illuminated
Apr 12
Waxing Crescent
Apr 18
First Quarter
Apr 25
Full
May 2
Last Quarter
May 9
New

Hourly Weather History & Observations

Time (EDT) Temp. Heat Index Dew Point Humidity Pressure Visibility Wind Dir Wind Speed Gust Speed Precip Events Conditions
12:03 AM 73.4 °F - 69.8 °F 88% 29.87 in 10.0 mi South 6.9 mph - N/A   Partly Cloudy
12:53 AM 73.0 °F - 69.1 °F 87% 29.88 in 10.0 mi South 6.9 mph - N/A   Mostly Cloudy
1:53 AM 73.0 °F - 69.1 °F 87% 29.89 in 10.0 mi South 5.8 mph - N/A   Scattered Clouds
2:53 AM 73.0 °F - 69.1 °F 87% 29.87 in 10.0 mi South 6.9 mph - N/A   Mostly Cloudy
3:08 AM 73.4 °F - 69.8 °F 88% 29.87 in 10.0 mi South 6.9 mph - N/A   Mostly Cloudy
3:16 AM 73.4 °F - 69.8 °F 88% 29.86 in 10.0 mi South 8.1 mph - N/A   Mostly Cloudy
3:53 AM 73.0 °F - 69.1 °F 87% 29.85 in 10.0 mi South 5.8 mph - N/A   Mostly Cloudy
4:13 AM 73.4 °F - 69.8 °F 88% 29.83 in 10.0 mi South 9.2 mph - N/A   Scattered Clouds
4:31 AM 73.4 °F - 69.8 °F 88% 29.82 in 10.0 mi South 6.9 mph - N/A   Scattered Clouds
4:39 AM 73.4 °F - 69.8 °F 88% 29.81 in 10.0 mi South 6.9 mph - N/A   Mostly Cloudy
4:53 AM 73.9 °F - 70.0 °F 87% 29.81 in 10.0 mi South 9.2 mph - N/A   Mostly Cloudy
5:25 AM 73.4 °F - 69.8 °F 88% 29.79 in 10.0 mi South 13.8 mph 21.9 mph N/A   Overcast
5:53 AM 75.0 °F - 70.0 °F 84% 29.79 in 10.0 mi South 12.7 mph 20.7 mph N/A   Overcast
6:53 AM 75.0 °F - 69.1 °F 82% 29.78 in 10.0 mi SSW 13.8 mph 21.9 mph N/A   Overcast
7:01 AM 75.2 °F - 69.8 °F 83% 29.78 in 10.0 mi SSW 15.0 mph 21.9 mph N/A   Mostly Cloudy
7:27 AM 75.2 °F - 69.8 °F 83% 29.79 in 10.0 mi SSW 11.5 mph 19.6 mph N/A   Scattered Clouds
7:43 AM 75.2 °F - 69.8 °F 83% 29.80 in 10.0 mi SSW 11.5 mph - N/A   Mostly Cloudy
7:53 AM 75.0 °F - 70.0 °F 84% 29.81 in 10.0 mi SSW 11.5 mph 18.4 mph N/A   Mostly Cloudy
8:53 AM 77.0 °F - 70.0 °F 79% 29.81 in 10.0 mi SSW 16.1 mph 21.9 mph N/A   Overcast
9:53 AM 79.0 °F - 70.0 °F 74% 29.82 in 10.0 mi SW 13.8 mph 21.9 mph N/A   Overcast
10:53 AM 82.9 °F 87.0 °F 70.0 °F 65% 29.82 in 10.0 mi SW 19.6 mph 29.9 mph N/A   Mostly Cloudy
11:14 AM 84.2 °F 88.4 °F 69.8 °F 62% 29.83 in 10.0 mi SSW 20.7 mph 29.9 mph N/A   Scattered Clouds
11:53 AM 84.9 °F 88.8 °F 69.1 °F 59% 29.83 in 10.0 mi SW 17.3 mph 27.6 mph N/A   Partly Cloudy
12:53 PM 88.0 °F 91.4 °F 68.0 °F 51% 29.82 in 10.0 mi SW 17.3 mph 26.5 mph N/A   Clear
1:53 PM 89.1 °F 91.3 °F 66.0 °F 46% 29.81 in 10.0 mi WSW 23.0 mph 31.1 mph N/A   Clear
2:53 PM 89.1 °F 90.0 °F 63.0 °F 42% 29.80 in 10.0 mi SW 21.9 mph 31.1 mph N/A   Clear
3:53 PM 88.0 °F 89.3 °F 64.0 °F 45% 29.79 in 10.0 mi SW 19.6 mph 33.4 mph N/A   Partly Cloudy
4:53 PM 86.0 °F 87.6 °F 64.9 °F 49% 29.79 in 10.0 mi SW 23.0 mph 29.9 mph N/A   Partly Cloudy
5:53 PM 84.0 °F 85.8 °F 64.9 °F 53% 29.81 in 10.0 mi WSW 17.3 mph 26.5 mph N/A   Clear
6:53 PM 81.0 °F 82.2 °F 63.0 °F 54% 29.82 in 10.0 mi WSW 17.3 mph 26.5 mph N/A   Clear
7:53 PM 79.0 °F - 63.0 °F 58% 29.83 in 10.0 mi SW 6.9 mph - N/A   Clear
8:53 PM 77.0 °F - 63.0 °F 62% 29.87 in 10.0 mi SSW 9.2 mph - N/A   Partly Cloudy
9:53 PM 77.0 °F - 64.0 °F 64% 29.89 in 10.0 mi SW 6.9 mph - N/A   Overcast
10:53 PM 75.9 °F - 64.0 °F 67% 29.88 in 10.0 mi Calm Calm - N/A   Scattered Clouds
11:53 PM 75.0 °F - 64.0 °F 69% 29.88 in 10.0 mi SSW 3.5 mph - N/A   Overcast